Home   Weather   Nowra   Past weeks
Flag for Australia

Past Weather in Nowra, New South Wales, Australia — Yesterday and Last 2 Weeks

Now
61 °F

Broken clouds.


Feels Like: 61 °F
Forecast: 67 / 57 °F
Wind: 8 mph from South

Location: Nowra Ran Air Station

Current Time: Apr 8, 2020 at 9:33:30 am

Latest Report: Apr 8, 2020 at 8:00 am


Visibility: N/A

Pressure: 30.18 "Hg

Humidity: 88%

Dew Point: 57 °F

Location of NowraLocation

Past Weather in Nowra — Graph

°F

Nowra Temperature Yesterday

Maximum temperature yesterday: 68 °F (at 11:00 am)
Minimum temperature yesterday: 55 °F (at 6:00 am)
Average temperature yesterday: 62 °F

High & Low Weather Summary for the Past Weeks

 TemperatureHumidityPressure
High82 °F (Mar 30, 4:00 pm)100% (Mar 25, 2:00 am)30.36 "Hg (Mar 25, 2:00 am)
Low54 °F (Mar 28, 12:00 am)33% (Apr 4, 3:30 pm)29.36 "Hg (Apr 4, 6:00 am)
Average66 °F77%30.00 "Hg
* Reported Mar 24 9:00 am — Apr 8 8:00 am, Nowra. Weather by CustomWeather, © 2020

Note: Actual official high and low records may vary slightly from our data, if they occured in-between our weather recording intervals... More about our weather records

Nowra Weather History for the Previous 24 Hours

Scroll right to see more
 ConditionsComfort  
Time TempWeatherWind HumidityBarometerVisibility
8:00 am
Wed, Apr 8
61 °FBroken clouds.8 mph88%30.18 "HgN/A
7:00 am59 °FBroken clouds.8 mph94%30.15 "HgN/A
6:00 am59 °FMostly cloudy.9 mph94%30.12 "HgN/A
5:00 am55 °FPassing clouds.5 mph100%30.12 "HgN/A
4:00 am57 °FClear.No wind94%30.12 "HgN/A
3:00 am57 °FPassing clouds.No wind94%30.12 "HgN/A
2:00 am57 °FOvercast.No wind100%30.12 "HgN/A
1:00 am57 °FOvercast.No wind100%30.12 "HgN/A
12:00 am57 °FOvercast.No wind94%30.12 "HgN/A
11:00 pm
Tue, Apr 7
57 °FPassing clouds.No wind94%30.15 "HgN/A
10:00 pm57 °FPartly cloudy.No wind94%30.15 "HgN/A
9:00 pm59 °FPartly cloudy.No wind88%30.15 "HgN/A
8:00 pm61 °FPassing clouds.2 mph77%30.15 "HgN/A
7:00 pm61 °FPassing clouds.No wind77%30.15 "HgN/A
6:00 pm63 °FClear.6 mph68%30.12 "Hg10 mi
5:00 pm64 °FPartly sunny.7 mph60%30.12 "HgN/A
4:00 pm64 °FPartly sunny.8 mph60%30.12 "HgN/A
3:00 pm66 °FPartly sunny.8 mph60%30.12 "HgN/A
2:00 pm66 °FBroken clouds.8 mph60%30.12 "HgN/A
1:00 pm66 °FBroken clouds.12 mph56%30.15 "HgN/A
12:00 pm66 °FScattered clouds.6 mph52%30.18 "HgN/A
11:00 am68 °FScattered clouds.9 mph53%30.18 "HgN/A
10:00 am66 °FScattered clouds.9 mph52%30.21 "HgN/A
9:00 am64 °FScattered clouds.10 mph60%30.21 "HgN/A
Weather by CustomWeather, © 2020

See weather overview

Advertising